Location: Newark
(48.2056°N, 97.3400°W)
Time: 18:02:28
(UTC+00:00)

Envisat - Visible Passes

Search period start: 20 November 2019 00:00
Search period end: 30 November 2019 00:00
Orbit: 764 x 766 km, 98.1° (Epoch: 20 November)

Date Brightness Start Highest point End Pass type
(mag) Time Alt. Az. Time Alt. Az. Time Alt. Az.
20 Nov 5.5 01:40:07 10° SW 01:43:50 20° W 01:47:36 10° NW visible
20 Nov 6.0 12:05:52 10° NE 12:08:56 16° E 12:12:00 10° SE visible
20 Nov 3.7 23:23:27 10° SE 23:27:51 31° ENE 23:32:17 10° N visible
21 Nov 4.3 01:01:59 10° SSW 01:06:46 41° W 01:11:34 10° NNW visible
21 Nov 4.0 13:06:45 10° NNE 13:11:44 53° E 13:16:41 10° S visible
22 Nov 3.0 00:24:47 10° SSE 00:29:52 84° WSW 00:35:00 10° NNW visible
22 Nov 6.1 02:07:46 10° WSW 02:09:41 12° W 02:11:37 10° WNW visible
22 Nov 5.4 12:30:28 10° NE 12:34:44 26° E 12:38:57 10° SSE visible
22 Nov 3.2 23:48:19 10° SE 23:53:11 49° ENE 23:58:05 10° N visible
23 Nov 5.2 01:28:18 10° SSW 01:32:27 25° W 01:36:37 10° NW visible
23 Nov 6.2 11:55:17 10° ENE 11:57:30 13° E 11:59:42 10° ESE visible
23 Nov 3.9 23:12:34 10° ESE 23:16:41 26° ENE 23:20:49 10° N visible
24 Nov 3.9 00:50:30 10° S 00:55:26 51° W 01:00:24 10° NNW visible
24 Nov 4.4 12:55:34 10° NNE 13:00:25 43° E 13:05:14 10° S visible
25 Nov 2.9 00:13:32 10° SSE 00:18:36 80° ENE 00:23:42 10° NNW visible
25 Nov 5.9 01:55:21 10° WSW 01:58:15 15° W 02:01:10 10° NW visible
25 Nov 5.7 12:19:29 10° NE 12:23:20 21° E 12:27:10 10° SE visible
25 Nov 3.4 23:37:15 10° SE 23:41:57 40° ENE 23:46:42 10° N visible
26 Nov 4.8 01:16:38 10° SSW 01:21:05 31° W 01:25:35 10° NNW visible
27 Nov 3.5 00:39:05 10° S 00:44:07 63° W 00:49:10 10° NNW visible
27 Nov 4.9 12:44:25 10° NNE 12:49:04 35° E 12:53:41 10° SSE visible
28 Nov 2.9 00:02:20 10° SSE 00:07:20 65° ENE 00:12:24 10° N visible
28 Nov 5.6 01:43:18 10° SW 01:46:50 19° W 01:50:23 10° NW visible
28 Nov 5.9 12:08:36 10° NE 12:11:56 17° E 12:15:15 10° SE visible
28 Nov 3.6 23:26:16 10° SE 23:30:46 33° ENE 23:35:17 10° N visible
29 Nov 4.4 01:05:01 10° SSW 01:09:43 38° W 01:14:28 10° NNW visible
29 Nov 3.8 13:09:40 10° NNE 13:14:42 58° E 13:19:42 10° S visible
